Location: Angwan Shehu
(11.2514°N, 7.4613°E)
Time: 06:24:47
(UTC+00:00)

SR - Pass Details

Date: 19 April 2021
Orbit: 573 x 882 km, 66.7° (Epoch: 12 May)

Event Time Altitude Azimuth Distance (km) Brightness Sun altitude
Rises 16:11:03 0° 1° (N) 3,334 ? 21.1°
Reaches altitude 10° 16:14:10 10° 17° (NNE) 2,349 ? 20.4°
Maximum altitude 16:18:07 21° 64° (ENE) 1,656 ? 19.4°
Drops below altitude 10° 16:21:51 10° 113° (ESE) 2,197 ? 18.5°
Sets 16:24:38 0° 129° (SE) 3,055 ? 17.8°
